Location: Arbon
(43.0005°N, 0.7472°E)
Time: 10:06:52
(UTC+00:00)

Envisat - Visible Passes

Search period start: 27 October 2020 00:00
Search period end: 06 November 2020 00:00
Orbit: 764 x 766 km, 98.1° (Epoch: 26 October)

Date Brightness Start Highest point End Pass type
(mag) Time Alt. Az. Time Alt. Az. Time Alt. Az.
27 Oct 4.7 05:22:09 10° NNE 05:26:52 37° E 05:31:32 10° SSE visible
27 Oct 5.9 18:18:05 10° SW 18:21:39 19° W 18:25:13 10° NW visible
28 Oct 6.1 04:46:27 10° NE 04:49:45 17° E 04:53:01 10° SE visible
28 Oct 4.5 17:39:48 10° SSW 17:44:34 41° W 17:49:22 10° NNW visible
29 Oct 3.6 05:47:19 10° NNE 05:52:23 65° ESE 05:57:25 10° S visible
29 Oct 6.6 18:46:29 10° W 18:47:23 10° W 18:48:19 10° WNW visible
30 Oct 5.2 05:10:59 10° NE 05:15:25 29° E 05:19:48 10° SSE visible
30 Oct 5.6 18:06:07 10° SSW 18:10:10 24° W 18:14:15 10° NW visible
31 Oct 6.3 04:35:48 10° ENE 04:38:14 13° E 04:40:40 10° ESE visible
31 Oct 4.0 17:28:12 10° S 17:33:08 52° W 17:38:07 10° NNW visible
01 Nov 4.0 05:36:01 10° NNE 05:40:59 51° E 05:45:54 10° S visible
01 Nov 6.3 18:33:21 10° WSW 18:35:52 14° W 18:38:24 10° WNW visible
02 Nov 5.6 04:59:55 10° NE 05:03:57 23° E 05:07:58 10° SE visible
02 Nov 5.1 17:54:17 10° SSW 17:58:42 30° W 18:03:09 10° NW visible
03 Nov 6.5 04:26:10 10° E 04:26:43 10° E 04:27:15 10° E visible
03 Nov 3.1 06:01:20 10° NNE 06:06:27 88° ESE 06:11:32 10° SSW visible
03 Nov 3.5 17:16:42 10° S 17:21:44 66° WSW 17:26:49 10° NNW visible
04 Nov 4.5 05:24:46 10° NNE 05:29:34 40° E 05:34:19 10° SSE visible
04 Nov 6.0 18:21:02 10° SW 18:24:22 17° W 18:27:43 10° NW visible
05 Nov 5.9 04:48:57 10° NE 04:52:28 19° E 04:55:58 10° SE visible
05 Nov 4.7 17:42:34 10° SSW 17:47:15 38° W 17:51:59 10° NNW visible
